Temperature
17 17 17 17 17 17 17 17 17 17 17 17 17 17 17 17 17 17 17 17 17 17 17 17 17 17 16 16 16 16 16 16 16 16 16 16 16 16 16 16 16 16 15
17 17 17 17 17 17 17 17 17 17 17 17 17 17 17 17 17 17 17 17 17 17 17 17 17 16 16 16 16 16 16 16 16 16 16 16 16 16 16 16 16 16 15
18 17 17 17 17 17 17 17 17 17 17 17 17 17 17 17 17 17 17 17 17 17 17 17 17 17 16 16 16 16 16 16 16 16 16 16 16 16 16 16 16 15 15
17 18 18 18 18 17 17 17 17 17 17 17 17 17 17 17 17 17 17 17 17 17 17 17 17 17 16 16 16 16 16 16 16 16 16 16 16 15 15 15 15 15 15
18 18 18 18 18 17 17 18 17 17 17 17 17 17 17 17 17 17 17 17 17 16 16 16 17 17 16 16 16 16 16 16 16 16 15 15 15 15 15 15 15 15 15
18 18 18 18 18 18 18 17 17 17 17 17 18 18 17 17 17 17 17 17 17 16 16 16 16 16 16 16 16 16 16 16 16 16 15 15 15 15 15 15 15 15 15
18 18 18 18 18 18 17 17 17 17 17 17 17 17 17 17 17 17 17 17 17 16 16 16 16 16 16 16 16 16 16 16 15 15 15 15 15 15 15 15 15 15 15
18 18 18 18 18 18 17 17 17 17 17 17 17 17 17 17 17 17 16 16 16 16 16 16 16 16 15 15 15 16 16 15 15 15 15 15 15 15 15 15 15 14 14
18 18 18 18 18 17 17 17 17 17 17 17 17 17 18 18 17 16 16 16 16 16 16 16 15 15 15 15 15 15 15 15 15 15 15 15 15 15 14 14 14 14 14
18 18 18 18 18 18 17 17 17 17 17 17 17 17 17 17 17 17 16 16 16 16 15 15 15 15 15 15 15 15 15 15 15 14 14 14 14 14 14 14 14 14 14
18 18 18 18 18 17 17 17 17 17 17 17 17 17 17 17 17 17 16 16 15 15 15 15 15 15 15 14 14 14 15 15 15 14 14 14 14 14 14 14 14 14 13
18 18 18 18 18 18 17 17 17 17 17 17 17 17 17 17 17 17 16 16 15 15 15 15 15 14 14 14 14 14 14 14 14 14 14 14 14 14 13 13 13 13 13
18 18 17 18 17 17 17 17 17 17 17 17 17 17 17 17 17 16 16 16 15 15 15 14 14 14 14 14 14 14 14 14 14 14 14 14 13 13 13 13 13 13 12
18 18 17 17 17 17 17 17 17 17 17 17 17 17 17 16 16 16 16 16 15 15 14 14 14 14 14 13 14 14 13 14 14 14 13 13 13 13 13 13 12 12 12
17 17 17 17 17 17 17 17 17 17 17 17 17 17 16 16 16 16 16 16 16 15 15 14 14 13 13 13 13 13 13 13 13 13 13 13 13 12 12 12 12 12 12
17 17 17 17 17 17 17 17 16 16 17 17 16 17 16 16 16 16 15 15 15 15 15 14 13 13 13 13 13 12 13 13 13 13 13 12 12 12 12 12 12 12 11
17 17 17 17 16 16 16 16 16 16 16 16 16 16 16 16 16 15 15 15 15 15 15 14 13 13 13 12 12 12 12 12 12 12 12 12 12 12 12 11 11 11 11
17 17 17 16 16 16 16 16 16 16 16 16 16 16 16 15 15 15 15 15 15 14 14 14 13 13 12 12 12 12 12 11 11 11 11 11 11 11 11 11 11 11 10
17 16 16 16 16 16 16 16 16 16 16 16 16 15 15 15 15 15 14 14 14 14 14 13 13 12 12 12 12 12 11 11 11 11 11 11 11 11 11 10 10 10 10
16 16 16 16 16 16 16 15 15 15 15 15 15 15 15 15 14 14 14 14 14 13 13 13 13 12 12 12 12 11 11 11 11 11 10 10 10 10 10 10 10 10 10
16 16 16 16 15 15 15 15 15 15 15 15 15 14 14 14 14 14 14 13 13 13 13 13 13 12 12 11 12 11 11 11 11 10 10 10 10 10 10 10 10 9 9
16 16 16 15 15 15 15 15 15 14 14 14 14 14 14 14 14 14 13 13 13 13 13 13 12 12 12 11 11 11 11 11 10 10 10 10 10 10 9 9 9 9 9
16 16 16 15 15 15 15 15 15 14 14 14 14 14 14 14 13 13 13 13 13 13 12 12 12 12 11 11 11 11 10 11 10 10 10 10 10 10 9 9 9 9 9
16 16 16 15 15 15 15 15 15 14 14 14 14 13 13 13 13 13 12 12 12 12 12 12 12 11 11 11 11 10 10 10 10 10 10 10 10 9 9 9 9 9 8
16 16 15 15 15 15 15 15 14 14 14 14 13 13 13 13 13 13 12 12 12 12 12 12 12 11 11 11 10 10 10 10 10 10 10 10 10 9 9 9 9 9 8
16 15 15 15 15 15 15 15 14 14 13 13 13 13 13 13 13 13 12 12 11 11 11 11 11 11 11 11 10 10 10 10 10 10 10 9 9 9 9 9 9 9 8
Wind_Speed
3 3 2 1 1 2 2 1 1 1 1 1 1 1 1 1 2 2 6 9 6 5 4 4 5 6 6 6 6 7 7 7 7 7 8 8 8 7 7 6 7 8 9
2 1 2 1 1 1 1 0 1 1 0 0 1 1 0 1 1 1 2 7 8 6 4 4 4 5 5 6 7 8 8 8 8 8 8 8 8 8 8 8 8 8 8
1 1 1 1 1 1 1 1 0 1 1 1 1 1 1 1 1 1 1 2 5 7 6 5 5 5 6 6 7 7 7 7 7 7 7 7 7 7 7 7 7 8 8
1 2 1 0 1 2 1 1 1 1 0 1 1 1 1 2 2 2 2 2 1 2 6 6 5 5 5 5 6 6 7 6 6 7 7 7 7 6 7 7 7 7 7
2 2 1 0 2 1 1 2 1 1 1 1 1 1 1 2 2 2 1 1 1 2 2 6 6 4 4 4 4 5 6 6 6 6 6 7 7 7 7 7 7 8 8
3 3 2 1 2 1 1 1 1 2 2 1 1 0 1 1 1 1 2 1 1 1 1 1 3 4 4 2 3 4 5 5 5 6 6 6 6 7 7 6 7 7 7
3 3 3 2 3 2 2 2 2 3 3 2 2 1 1 1 1 1 1 0 1 1 1 1 0 0 2 4 2 2 3 4 5 5 5 6 6 7 7 7 7 7 7
3 3 3 4 3 3 3 3 3 3 3 3 2 2 2 2 1 1 1 1 1 1 2 2 2 2 1 1 3 3 1 1 1 2 3 4 5 6 6 6 6 5 6
2 3 3 4 4 4 3 4 4 5 4 3 3 3 2 1 1 2 1 1 1 1 1 2 2 2 1 1 3 4 3 2 1 1 1 1 2 3 4 4 5 5 4
3 3 3 4 4 4 3 4 4 4 4 4 3 4 4 2 2 1 2 2 1 1 0 1 2 2 2 2 3 5 5 4 3 3 3 2 2 2 3 3 2 3 3
3 3 3 3 4 4 3 4 3 4 4 4 3 3 3 3 4 3 2 1 1 0 0 0 1 1 2 3 3 5 6 5 4 3 4 4 5 5 4 2 1 1 1
2 2 3 3 3 3 3 3 3 3 3 3 4 3 3 3 3 3 3 3 1 1 0 1 0 1 2 3 5 7 7 6 6 5 5 5 6 6 6 6 6 6 6
2 2 2 2 2 2 3 3 2 3 3 3 3 3 3 3 3 3 3 3 2 1 1 1 0 1 2 3 4 7 8 7 7 7 7 7 7 8 8 8 8 8 8
2 1 1 1 2 2 2 2 2 2 2 2 2 2 2 2 2 3 3 3 2 2 1 1 1 2 3 4 4 4 6 8 8 7 7 8 8 8 8 8 8 8 7
1 0 1 1 1 1 1 2 2 2 2 2 2 1 2 1 1 2 3 4 3 3 2 1 1 2 3 4 4 5 6 8 8 7 7 7 7 7 7 7 7 7 7
0 0 0 1 0 0 1 1 1 1 1 1 1 2 2 1 1 2 2 2 3 3 2 1 2 3 3 4 5 5 6 8 8 8 7 7 7 6 6 6 7 7 7
1 1 0 0 1 1 1 1 1 1 1 2 2 1 1 2 1 0 0 1 1 2 3 3 3 4 3 2 4 4 5 5 6 7 7 6 6 6 6 6 6 6 7
1 1 1 1 1 1 1 1 1 2 1 1 1 1 1 0 1 1 1 1 1 1 3 4 3 3 3 3 3 3 4 4 5 8 7 7 6 6 6 6 6 6 7
2 2 1 1 1 1 1 1 1 1 2 2 2 2 1 1 1 1 1 1 1 2 2 3 4 3 3 3 3 3 3 2 4 6 7 7 7 6 6 7 7 7 7
3 2 2 2 1 1 1 1 1 1 2 2 2 2 2 2 1 2 1 1 1 2 3 3 4 4 3 2 2 3 3 2 2 3 4 5 7 7 7 7 6 6 6
3 3 2 2 2 2 2 1 1 1 2 2 2 2 3 4 5 3 2 1 1 2 3 3 3 3 3 2 2 2 2 2 2 2 2 3 4 4 5 7 6 5 6
3 3 3 2 2 2 4 4 1 2 2 2 3 3 4 4 5 5 5 5 3 1 2 2 2 3 3 2 2 2 2 2 2 2 1 2 2 2 2 4 6 6 6
4 3 3 2 2 3 4 3 3 2 3 3 3 2 2 4 4 4 5 5 4 4 2 0 2 2 3 3 3 3 2 1 0 1 2 2 1 1 2 5 8 7 6
4 3 3 3 3 3 3 2 0 3 3 3 2 2 2 3 3 3 4 4 4 3 2 1 2 1 1 2 3 2 2 2 2 1 2 2 2 2 2 4 9 8 7
4 4 3 3 3 3 3 1 1 3 3 3 3 3 2 3 4 2 4 4 4 4 6 8 7 5 4 3 1 2 2 3 2 2 2 2 2 2 2 3 7 10 9
5 4 4 3 3 3 3 1 3 3 3 3 3 3 5 4 4 1 3 3 3 3 3 4 5 4 4 5 3 1 2 2 2 1 2 2 2 2 3 3 3 6 8
Wind_Direction
102 106 105 101 134 121 150 148 94 99 139 144 151 138 115 98 101 127 127 142 157 172 185 195 206 213 213 215 220 219 216 214 217 218 220 218 213 216 218 218 219 222 225
101 114 148 153 130 168 82 101 127 160 196 129 148 126 175 149 130 140 144 148 161 174 192 202 212 217 218 223 227 228 222 220 215 215 218 218 218 222 226 227 229 228 229
129 222 163 188 157 150 151 215 219 216 201 177 173 177 177 188 148 132 152 155 160 173 188 200 206 213 223 232 234 228 223 216 215 215 214 214 217 216 218 225 232 232 232
219 249 237 231 187 219 203 208 232 241 219 216 191 223 190 167 185 184 184 182 202 186 174 179 196 210 221 231 228 220 214 213 212 211 208 211 215 217 220 224 230 231 230
234 243 255 8 240 245 257 263 141 258 218 200 186 190 224 202 182 194 197 199 198 233 219 167 179 194 219 229 223 213 209 213 214 217 215 217 221 225 225 229 231 231 231
234 250 238 245 253 234 234 260 264 249 248 235 249 133 259 241 198 199 214 192 183 212 247 232 186 184 183 202 226 224 226 225 222 228 229 228 230 230 226 227 231 233 234
248 255 274 253 264 257 258 249 248 227 223 207 218 222 203 207 185 206 208 181 127 103 79 64 319 282 159 178 197 221 226 224 222 229 231 233 238 239 232 233 236 235 231
257 246 263 268 258 259 254 252 247 247 229 214 233 241 227 202 155 116 132 132 83 101 105 99 80 61 21 91 107 136 135 142 157 206 220 232 239 242 239 234 231 230 228
264 289 277 276 275 265 249 242 240 240 243 231 232 252 254 221 162 125 90 88 93 74 82 84 88 78 71 77 88 117 134 135 138 144 141 229 218 206 215 221 225 226 226
259 266 274 275 275 274 263 252 240 247 247 247 234 241 258 266 249 193 150 125 110 94 37 31 63 89 88 92 93 79 103 113 102 90 85 89 103 148 185 190 202 215 223
257 264 264 273 274 278 279 278 268 259 252 255 256 251 245 233 234 239 227 189 156 171 80 128 93 74 84 87 81 82 95 106 104 98 81 77 82 86 92 112 158 188 212
251 258 256 263 266 276 275 268 271 260 268 268 264 253 246 249 238 232 224 210 213 225 264 22 60 66 82 89 86 86 90 96 98 98 92 86 79 77 79 77 74 75 74
257 259 263 261 266 265 273 273 265 277 265 260 261 259 258 260 259 247 221 221 237 247 223 232 47 67 82 88 90 98 93 93 93 91 89 89 84 80 80 78 76 75 73
266 266 275 263 264 267 277 284 282 280 278 270 275 280 275 275 261 240 232 220 230 239 211 187 111 85 91 95 92 108 97 98 98 96 95 92 88 84 80 78 77 73 71
232 228 272 269 258 261 279 282 301 307 306 297 293 280 277 276 259 247 224 219 226 237 234 179 153 110 104 96 100 99 92 97 104 105 104 104 100 94 87 85 80 74 71
183 167 289 295 295 337 321 307 313 318 328 327 327 337 312 295 281 254 240 239 237 232 233 155 134 115 114 117 108 106 102 109 100 107 109 107 103 98 93 89 88 87 84
127 103 44 52 45 25 3 333 332 333 343 347 354 4 342 321 308 289 220 234 236 195 175 141 122 119 123 123 119 115 114 114 108 109 111 111 107 102 97 93 91 92 91
124 126 108 93 85 61 12 356 348 11 22 14 8 21 15 51 91 90 101 111 114 144 160 145 140 145 146 145 139 137 122 115 110 108 113 114 112 109 106 101 97 94 93
131 120 108 93 74 64 46 34 31 39 47 44 36 46 51 64 80 87 101 115 137 142 146 143 137 139 136 135 138 129 116 115 120 126 127 127 122 119 115 111 107 105 102
138 129 118 101 83 67 59 55 60 65 67 64 54 53 52 61 81 98 112 126 131 138 140 143 140 143 140 143 153 146 138 135 121 122 113 126 134 140 136 130 124 119 117
139 130 118 105 92 82 56 58 97 96 89 82 72 70 64 59 50 50 51 85 141 158 156 148 147 149 147 167 170 177 155 146 127 125 142 143 144 141 144 148 143 137 134
137 129 120 111 93 68 46 29 19 91 90 90 85 83 92 90 89 81 64 54 47 123 140 152 156 154 161 172 167 181 168 182 173 149 177 150 139 128 133 123 123 132 135
146 139 131 123 107 77 59 46 13 87 93 84 83 84 81 90 107 101 101 106 78 56 46 253 152 177 173 170 186 190 187 224 201 171 211 197 177 190 169 126 137 145 150
156 149 142 136 126 101 89 97 62 116 99 94 92 92 95 102 96 107 115 108 102 87 83 94 89 81 111 153 193 200 186 175 181 188 219 238 204 214 191 153 153 160 171
159 157 145 137 126 109 88 99 240 133 115 102 94 85 96 99 71 66 119 114 107 105 92 92 89 92 83 99 167 202 186 200 205 199 197 244 228 220 220 196 169 176 186
164 158 141 137 132 123 106 113 271 149 129 124 116 104 82 80 83 26 128 124 120 114 116 120 121 131 131 130 155 227 225 231 227 212 162 235 234 233 231 210 195 191 200
Height
1572 1572 1571 1572 1573 1573 1573 1572 1573 1573 1573 1573 1574 1574 1574 1574 1574 1574 1574 1573 1573 1573 1573 1573 1573 1573 1573 1574 1574 1574 1574 1574 1575 1575 1575 1576 1576 1576 1577 1577 1578 1578 1579
1572 1572 1572 1572 1572 1572 1573 1572 1573 1572 1573 1573 1573 1573 1573 1574 1573 1573 1574 1573 1572 1572 1572 1572 1572 1572 1572 1572 1572 1572 1573 1573 1573 1573 1573 1574 1574 1574 1575 1575 1576 1576 1577
1572 1572 1572 1572 1572 1572 1572 1572 1572 1572 1572 1573 1572 1572 1573 1572 1573 1572 1573 1573 1572 1571 1571 1571 1571 1571 1571 1571 1570 1571 1571 1571 1571 1571 1571 1572 1572 1572 1573 1573 1573 1574 1574
1572 1571 1572 1572 1571 1572 1572 1571 1571 1572 1572 1572 1571 1572 1572 1571 1571 1571 1571 1571 1571 1571 1570 1569 1569 1569 1569 1569 1568 1568 1569 1569 1569 1569 1569 1569 1569 1570 1570 1571 1571 1571 1572
1571 1571 1571 1571 1571 1571 1571 1571 1571 1571 1571 1571 1570 1570 1571 1570 1570 1570 1570 1570 1569 1569 1569 1568 1568 1567 1567 1567 1567 1567 1567 1567 1567 1567 1567 1567 1567 1567 1568 1568 1569 1569 1569
1571 1571 1571 1570 1570 1570 1570 1569 1569 1569 1569 1569 1569 1569 1569 1569 1569 1568 1568 1568 1568 1567 1567 1567 1567 1566 1565 1565 1565 1565 1565 1565 1565 1565 1565 1565 1565 1565 1565 1566 1566 1566 1567
1571 1570 1570 1569 1569 1569 1568 1569 1568 1568 1568 1568 1568 1567 1567 1567 1567 1566 1566 1566 1566 1565 1565 1565 1565 1565 1564 1563 1563 1563 1563 1563 1563 1563 1562 1562 1562 1563 1563 1563 1563 1563 1564
1569 1570 1568 1568 1568 1567 1567 1566 1566 1566 1566 1566 1566 1566 1566 1566 1565 1565 1564 1564 1564 1564 1564 1563 1563 1562 1562 1562 1561 1561 1561 1561 1561 1560 1560 1560 1560 1560 1560 1560 1560 1561 1561
1568 1567 1567 1566 1566 1566 1566 1565 1564 1564 1565 1564 1564 1564 1564 1563 1563 1564 1563 1562 1562 1562 1562 1562 1561 1561 1560 1560 1559 1559 1559 1559 1558 1558 1558 1558 1557 1557 1557 1557 1557 1558 1558
1566 1565 1565 1564 1564 1564 1563 1563 1563 1563 1562 1562 1562 1561 1562 1561 1562 1562 1562 1561 1561 1560 1560 1561 1560 1559 1559 1558 1557 1557 1557 1556 1556 1556 1556 1555 1555 1554 1554 1554 1555 1555 1555
1564 1563 1563 1563 1562 1562 1561 1561 1561 1560 1560 1560 1560 1559 1559 1559 1559 1560 1560 1561 1560 1560 1559 1559 1559 1558 1558 1557 1556 1556 1555 1555 1555 1554 1554 1553 1553 1553 1553 1552 1552 1552 1552
1562 1561 1561 1560 1560 1560 1559 1559 1558 1558 1558 1557 1557 1557 1557 1557 1557 1557 1557 1558 1558 1558 1557 1557 1557 1557 1557 1556 1555 1554 1554 1554 1553 1553 1553 1552 1552 1552 1551 1551 1551 1550 1550
1561 1559 1559 1558 1558 1557 1557 1557 1556 1556 1556 1555 1555 1555 1555 1555 1555 1555 1555 1555 1556 1556 1556 1555 1556 1556 1556 1555 1554 1553 1553 1553 1552 1552 1552 1551 1551 1551 1550 1550 1550 1549 1549
1559 1558 1557 1556 1556 1555 1555 1555 1555 1554 1554 1553 1553 1552 1552 1552 1552 1552 1553 1553 1553 1554 1554 1554 1554 1554 1554 1554 1553 1553 1552 1552 1551 1551 1551 1550 1550 1550 1549 1549 1549 1548 1548
1556 1556 1555 1555 1554 1554 1553 1553 1553 1552 1552 1551 1551 1551 1550 1550 1550 1550 1550 1551 1552 1551 1552 1552 1552 1552 1553 1552 1552 1552 1552 1551 1551 1550 1550 1550 1549 1549 1549 1548 1548 1547 1547
1554 1554 1553 1553 1552 1552 1551 1551 1551 1550 1550 1549 1549 1548 1548 1548 1548 1548 1548 1548 1548 1549 1549 1550 1550 1551 1551 1552 1551 1551 1551 1550 1550 1550 1549 1549 1549 1548 1548 1547 1547 1546 1546
1553 1552 1551 1551 1551 1550 1550 1550 1549 1549 1548 1548 1547 1547 1546 1546 1546 1546 1546 1546 1546 1546 1546 1547 1548 1549 1549 1550 1550 1550 1550 1550 1550 1549 1549 1549 1548 1548 1547 1547 1546 1546 1545
1551 1551 1550 1550 1550 1550 1549 1548 1548 1548 1547 1547 1546 1546 1545 1545 1544 1544 1544 1544 1544 1544 1545 1545 1546 1547 1548 1549 1549 1550 1550 1550 1549 1549 1548 1548 1547 1547 1546 1546 1545 1545 1544
1551 1550 1550 1549 1549 1549 1548 1548 1548 1547 1547 1546 1545 1545 1544 1544 1543 1543 1543 1543 1543 1544 1544 1545 1545 1546 1547 1548 1548 1548 1549 1548 1549 1548 1547 1547 1546 1545 1545 1545 1544 1544 1544
1550 1550 1549 1549 1549 1548 1548 1548 1547 1547 1546 1546 1545 1544 1544 1543 1543 1543 1543 1543 1543 1543 1543 1544 1545 1545 1546 1546 1547 1547 1547 1547 1548 1548 1547 1546 1545 1545 1544 1544 1544 1543 1543
1550 1549 1549 1549 1548 1548 1548 1547 1547 1547 1546 1546 1545 1544 1543 1543 1542 1542 1543 1542 1542 1543 1543 1543 1544 1545 1545 1545 1546 1546 1547 1547 1546 1547 1546 1546 1545 1545 1544 1543 1543 1543 1542
1549 1549 1548 1548 1548 1548 1547 1547 1547 1546 1546 1546 1545 1544 1544 1543 1542 1542 1541 1541 1542 1542 1542 1543 1543 1544 1544 1544 1544 1545 1545 1545 1546 1546 1546 1546 1545 1545 1544 1543 1542 1542 1541
1548 1548 1548 1548 1547 1547 1546 1546 1546 1546 1546 1545 1545 1545 1544 1543 1542 1541 1541 1541 1541 1541 1541 1542 1543 1543 1543 1543 1543 1543 1544 1544 1544 1544 1544 1544 1544 1544 1544 1543 1542 1541 1541
1547 1547 1547 1547 1547 1546 1546 1546 1546 1546 1545 1545 1545 1544 1544 1543 1542 1541 1541 1541 1540 1540 1540 1541 1541 1541 1541 1541 1542 1542 1542 1543 1543 1543 1543 1543 1543 1543 1543 1542 1541 1540 1540
1546 1546 1546 1546 1546 1546 1546 1545 1545 1546 1545 1545 1545 1544 1543 1543 1542 1541 1541 1541 1540 1540 1540 1540 1539 1540 1540 1540 1540 1542 1542 1542 1542 1543 1542 1542 1542 1541 1541 1541 1540 1539 1538
1545 1545 1545 1545 1545 1545 1545 1545 1545 1546 1545 1545 1545 1544 1543 1543 1542 1541 1541 1540 1540 1540 1540 1539 1539 1539 1540 1540 1540 1540 1541 1542 1542 1542 1541 1540 1540 1540 1540 1539 1539 1538 1537